Powrót do katalogu

STARLINK-37643

AktywnyŁącznośćVLEO
NORAD 69449·PAYLOAD·🇺🇸 United States

Wystrzelony Jun 8, 2026 z Cape Canaveral Space Force Station

Loading…

Następne Przeloty (najbliższe 24 godziny)

TLE

ŚwieżeSource: CelesTrak SupGP

Epoka: Sep 15, 2026, 02:54 UTC

1 69449C 26127G   26258.12131944 -.00080701  00000+0 -23846-2 0  2588
2 69449  53.1568 190.8257 0001335  83.8686  33.9267 15.34427267    17

Śledź STARLINK-37643 w czasie rzeczywistym z AllMySat

Download on the App Store